Terminal Aerodrome Forecast
Issued by NWS Omaha/Valley, NE

Home | Current Version | Previous Version | Text Only | Print | Product List | Glossary Off
Versions: 1 2 3 4 5 6 7 8 9 10 11 12 13 14 15 16 17 18 19 20 21 22 23 24 25 26 27 28 29 30 31 32

000
FTUS43 KOAX 301221 AAA
TAFOFK
TAF AMD
KOFK 301221Z 3012/0112 05004KT 5SM HZ BKN100 OVC250
     FM301800 10008KT 6SM HZ BKN100
     FM302100 32012KT 6SM HZ BKN070 PROB30 3021/0103 5SM -TSRA
      BKN040CB=

USA.gov is the U.S. government's official web portal to all federal, state and local government web resources and services.